Regional Weather Roundup
Issued by NWS Lake Charles, LA

Home | Current Version | Previous Version | Text Only | Print | Product List | Glossary On
Versions: 1 2 3 4 5 6 7 8 9 10 11 12 13 14 15 16 17 18 19 20 21 22 23 24 25 26 27 28
000
ASUS44 KLCH 221210
RWRLCH
REGIONAL WEATHER ROUNDUP
NATIONAL WEATHER SERVICE LAKE CHARLES LA
600 AM CST SUN JAN 22 2017

Note: "fair" indicates few or no clouds below 12,000 feet with no
significant weather and/or obstructions to visibility.


ACROSS SOUTHEAST TEXAS

CITY           SKY/WX    TMP DP  RH WIND       PRES   REMARKS
BEAUMONT       CLOUDY    60  46  59 W14       29.53S
BEAUMONT CITY  FAIR      60  47  62 W10G17    29.54F
ORANGE         CLOUDY    62  45  53 W8        29.54F
JASPER           N/A     60  44  55 SW6       29.52R
$$

ACROSS CENTRAL LOUISIANA

CITY           SKY/WX    TMP DP  RH WIND       PRES   REMARKS
LEESVILLE      CLOUDY    58  45  62 SW10      29.47F
FULLERTON      CLOUDY    54  52  93 CALM      29.44F
ALEXANDRIA INT LGT RAIN  57  48  72 S8        29.46F
ESLER FIELD    LGT RAIN  55  51  86 SW5       29.49F
DERIDDER       CLOUDY    59  41  52 SW8       29.50F
OAKDALE        DRIZZLE   56  50  79 CALM      29.48F
OPELOUSAS      CLOUDY    56  51  82 NW6       29.54F
$$

ACROSS SOUTHWEST AND SOUTH CENTRAL LOUISIANA

CITY           SKY/WX    TMP DP  RH WIND       PRES   REMARKS
SULPHUR        CLOUDY    62  44  52 W15G22    29.53R
LAKE CHARLES   CLOUDY    62  43  49 W13G22    29.52F
CHENNAULT INT  CLOUDY    62  42  46 W15G25    29.51F
CAMERON PHI    CLOUDY    63  50  63 NW8       29.52R
DEQUINCY       CLOUDY    60  43  52 W10       29.51R
JENNINGS       CLOUDY    57  52  82 CALM      29.79F
LAFAYETTE      CLOUDY    62  51  67 NW10      29.55R
NEW IBERIA     CLOUDY    61  50  67 NW12      29.57R
ABBEVILLE      CLOUDY    59  54  82 N8        29.55R
PATTERSON      CLOUDY    62  52  69 NW13G18   29.54R
SALT POINT     NOT AVBL
$$

SELECTED SITES ACROSS THE REGION

CITY           SKY/WX    TMP DP  RH WIND       PRES   REMARKS
HOUSTON BUSH   PTCLDY    58  37  45 W8        29.56S
HOUSTON HOBBY  CLEAR     58  37  45 W12       29.57S
GALVESTON      CLEAR     63  42  46 W22G30    29.58S
COLLEGE STAT   CLEAR     54  35  48 SW9       29.53F
CONROE         CLEAR     57  33  40 W9        29.55R
HUNTSVILLE     PTCLDY    56  32  40 SW9       29.52S
LUFKIN         CLEAR     54  39  57 SW10      29.48S
SHREVEPORT     PTCLDY    56  46  69 SW8       29.40S
MONROE         LGT RAIN  58  50  75 S14G23    29.44F
NATCHEZ MS     CLOUDY    55  52  88 SW6       29.53F
BATON ROUGE    CLOUDY    60  53  77 W8G17     29.55F
N.O. INTL ARPT MOCLDY    68  65  90 NW9       29.48F
SLIDELL        PTCLDY    66  66 100 CALM      29.51R FOG
$$

MARINE REPORTS

STATION/POSITION TIME  SKY/WX   TEMP    WIND        PRES    VSBY
                                AIR SEA DIR/SP/G
                 (UTC)          (F)     (DEG/KT/KT) (MB)    (MI)
BUOY 30 S HIGH I 1050            67 66  280/ 25/ 33 1000.2
WVE H/P(F/S)=  3/ 7

SEA RIM ST PARK  1200            60     280/ 11/ 14 1001.4R
PORT ARTHUR      1142               66  280/ 12/ 19 1000.2R
SABINE PASS N    1142            61 68  280/  6/ 10 1001.6R
TEXAS POINT      NOT AVBL
CALCASIEU PASS   1142            63 66  310/  6/  7   N/A
LK CHARLES BEACH 1148            64 64               999.6F
MARSH ISLAND     NOT AVBL
FRESH WATER LOCK 1142            60 70  320/  8/  9 1000.6R
AMERADA PASS     1148            61 57  300/ 11/ 21  999.9R
$$




USA.gov is the U.S. government's official web portal to all federal, state and local government web resources and services.